Location: Wiesbaden
(50.0830°N, 8.2500°E)
Time: 07:19:30
(UTC+02:00)

ISS - Pass Details

Date: 25 May 2019
Orbit: 408 x 418 km, 51.6° (Epoch: 27 May)

Event Time Altitude Azimuth Distance (km) Brightness Sun altitude
Rises 01:50:17 0° 286° (WNW) 2,361 0.2 -18.8°
Reaches altitude 10° 01:52:33 10° 275° (W) 1,496 -1.0 -18.8°
Enters shadow 01:53:05 13° 270° (W) 1,309 -1.3 -18.8°
